Wainwright, AK

2:02 AM AKDT on July 28, 2016 (GMT -0800)
Wainwright

Weather History for PAWI - April, 2014

Change the Weather History Date:

Thursday, April 17, 2014

  Actual Average (PABR) Record (PABR)
Temperature  
Mean Temperature 10 °F -  
Max Temperature 18 °F 10 °F 35 °F (1951)
Min Temperature 3 °F -4 °F -26 °F (1952)
Degree Days  
Heating Degree Days 54 62  
Month to date heating degree days 1149  
Since 1 July heating degree days 16401  
Cooling Degree Days 0    
Month to date cooling degree days  
Year to date cooling degree days  
Moisture  
Dew Point 6 °F    
Average Humidity 82    
Maximum Humidity 92    
Minimum Humidity 73    
Precipitation  
Precipitation 0.00 in 0.00 in 0.50 in (1926)
Month to date precipitation 0.09  
Year to date precipitation 0.45  
Snow  
Snow 0.00 in 0.10 in 2.70 in (1963)
Month to date snowfall 1.8  
Since 1 July snowfall 32.9  
Snow Depth -    
Sea Level Pressure  
Sea Level Pressure 29.91 in    
Wind  
Wind Speed 8 mph (NNW)    
Max Wind Speed 12 mph    
Max Gust Speed -    
Visibility 7 miles    
Events Fog    
T = Trace of Precipitation, MM = Missing Value Source: NWS Daily Summary

Daily Weather History Graph

Daily Weather History Graph

Search for Another Location

Airport or City:

Trip Planner

Search our weather history database for the weather conditions in past years. The results will help you decide how hot, cold, wet, or windy it might be!

Date:

Astronomy

Apr. 17, 2014 Rise Set
Actual Time 6:18 AM AKDT 11:03 PM AKDT
Civil Twilight 4:46 AM AKDT 12:39 AM AKDT
Nautical Twilight Sun does not set Sun does not set
Astronomical Twilight Sun does not set Sun does not set
Moon 2:19 AM AKDT (4/17) 6:30 AM AKDT (4/17)
Length of Visible Light 19h 53m
Length of Day
16h 44m
Waning Gibbous, 93% of the Moon is Illuminated
Apr 17
Waning Gibbous
Apr 21
Last Quarter
Apr 28
New
May 6
First Quarter
May 14
Full

Hourly Weather History & Observations

Time (AKDT) Temp. Windchill Dew Point Humidity Pressure Visibility Wind Dir Wind Speed Gust Speed Precip Events Conditions
12:53 AM 18.0 °F 6.9 °F 14.0 °F 84% 29.97 in 10.0 mi NNW 9.2 mph - N/A   Overcast
1:51 AM 17.6 °F 6.4 °F 12.2 °F 79% 29.97 in 10.0 mi NNW 9.2 mph - N/A   Overcast
1:53 AM 17.1 °F 6.6 °F 12.9 °F 84% 29.97 in 10.0 mi NNW 8.1 mph - N/A   Overcast
2:41 AM 15.8 °F 5.1 °F 12.2 °F 86% 29.97 in 10.0 mi NNW 8.1 mph - N/A   Overcast
2:53 AM 15.1 °F 4.2 °F 12.0 °F 88% 29.97 in 10.0 mi NNW 8.1 mph - N/A   Overcast
3:53 AM 14.0 °F 5.1 °F 10.9 °F 88% 29.97 in 10.0 mi WNW 5.8 mph - N/A   Overcast
4:53 AM 12.9 °F 5.2 °F 10.0 °F 88% 29.96 in 10.0 mi NW 4.6 mph - N/A   Overcast
5:45 AM 12.2 °F 6.1 °F 8.6 °F 85% 29.95 in 1.8 mi NW 3.5 mph - N/A   Overcast
5:53 AM 12.0 °F 5.9 °F 10.0 °F 92% 29.95 in 1.5 mi NNW 3.5 mph - N/A   Overcast
6:02 AM 12.2 °F - 8.6 °F 85% 29.95 in 2.0 mi Calm Calm - N/A   Overcast
6:09 AM 12.2 °F 6.1 °F 8.6 °F 85% 29.94 in 1.8 mi NW 3.5 mph - N/A   Overcast
6:37 AM 12.2 °F 2.9 °F 8.6 °F 85% 29.94 in 0.8 mi NNW 5.8 mph - N/A   Mist
6:51 AM 12.2 °F 2.9 °F 8.6 °F 85% 29.94 in 1.2 mi NNW 5.8 mph - N/A   Overcast
6:53 AM 12.9 °F 3.8 °F 9.0 °F 84% 29.94 in 1.5 mi NNW 5.8 mph - N/A   Overcast
7:35 AM 12.2 °F 2.9 °F 8.6 °F 85% 29.93 in 0.5 mi NW 5.8 mph - N/A Fog Light Freezing Fog
7:51 AM 12.2 °F 4.3 °F 8.6 °F 85% 29.94 in 1.2 mi NNW 4.6 mph - N/A   Overcast
8:36 AM 10.4 °F -0.4 °F 8.6 °F 92% 29.93 in 1.0 mi NNW 6.9 mph - N/A   Overcast
9:03 AM 10.4 °F -1.5 °F 6.8 °F 85% 29.92 in 3.0 mi North 8.1 mph - N/A   Overcast
9:53 AM 10.0 °F -0.9 °F 5.0 °F 80% 29.92 in 7.0 mi NNW 6.9 mph - N/A   Overcast
10:53 AM 9.0 °F -2.2 °F 3.9 °F 80% 29.92 in 8.0 mi North 6.9 mph - N/A   Overcast
11:53 AM 9.0 °F -2.2 °F 3.0 °F 77% 29.91 in 7.0 mi North 6.9 mph - N/A   Overcast
12:53 PM 8.1 °F -3.2 °F 3.0 °F 80% 29.90 in 10.0 mi North 6.9 mph - N/A   Overcast
1:53 PM 10.0 °F -1.9 °F 3.9 °F 76% 29.90 in 10.0 mi NNW 8.1 mph - N/A   Scattered Clouds
2:06 PM 10.4 °F -2.4 °F 3.2 °F 73% 29.89 in 10.0 mi NNW 9.2 mph - N/A   Partly Cloudy
2:53 PM 10.0 °F -1.9 °F 3.9 °F 76% 29.89 in 10.0 mi North 8.1 mph - N/A   Partly Cloudy
3:53 PM 10.0 °F -2.9 °F 3.9 °F 76% 29.88 in 10.0 mi North 9.2 mph - N/A   Scattered Clouds
4:32 PM 10.4 °F -2.4 °F 5.0 °F 79% 29.87 in 4.0 mi North 9.2 mph - N/A   Haze
4:40 PM 10.4 °F -2.4 °F 3.2 °F 73% 29.87 in 9.0 mi North 9.2 mph - N/A   Scattered Clouds
4:53 PM 10.0 °F -2.9 °F 3.9 °F 76% 29.87 in 6.0 mi North 9.2 mph - N/A   Haze
5:53 PM 10.0 °F -2.9 °F 3.9 °F 76% 29.86 in 10.0 mi North 9.2 mph - N/A   Clear
6:34 PM 10.4 °F -4.1 °F 5.0 °F 79% 29.85 in 10.0 mi North 11.5 mph - N/A   Mostly Cloudy
6:53 PM 10.9 °F -3.4 °F 5.0 °F 77% 29.86 in 10.0 mi North 11.5 mph - N/A   Overcast
7:53 PM 9.0 °F -5.9 °F 3.9 °F 80% 29.85 in 10.0 mi North 11.5 mph - N/A   Overcast
8:36 PM 6.8 °F -7.8 °F 1.4 °F 79% 29.85 in 10.0 mi North 10.4 mph - N/A   Scattered Clouds
8:53 PM 6.1 °F -7.8 °F 1.0 °F 80% 29.86 in 9.0 mi North 9.2 mph - N/A   Clear
9:18 PM 3.2 °F -11.3 °F -0.4 °F 85% 29.85 in 10.0 mi North 9.2 mph - N/A   Mostly Cloudy
9:53 PM 5.0 °F -9.1 °F -0.0 °F 80% 29.85 in 10.0 mi North 9.2 mph - N/A   Overcast
10:53 PM 5.0 °F -10.0 °F -0.0 °F 80% 29.85 in 10.0 mi North 10.4 mph - N/A   Overcast
11:53 PM 5.0 °F -9.1 °F -0.0 °F 80% 29.85 in 10.0 mi North 9.2 mph - N/A   Overcast